STARLINK-5721 (55617 NORAD) Tracking and Keplerian Element Data

This shows tracking and keplerian element data for the satellite.

Feedback or suggestion? Click here.




ElementValue
Catalog55617
NameSTARLINK-5721
Epoch Orbit660
Epoch Day85.25001157
Epoch Year2023
RAAN103.841
Inclination42.9981
Eccentricity0.0001504
Argument of Perigee268.7657
Mean Anonmoly105.2775
Mean Motion15.48936367
Decay Rate-0.00064083
L11 55617U 23020BA 23085.25001157 -.00064083 00000+0 -11612-2 0 9995
L22 55617 42.9981 103.8410 0001504 268.7657 105.2775 15.48936367 6608



Live tracking and technical data element details for STARLINK-5721 (NORAD 55617). STARLINK-5721 can be tracked NOW for your location showing map with azimuth and elevation plus other details from your city location.







IsCatalogInMostPopularTable: catalog: 55617, numindb: 4
Update: records affected: 1



GetName: 55617 STARLINK-5721

Hit Count: updated at: Tue, 28 Mar 2023 03:27:32 GMT